[[{"header":{"parameterUnit":"m.s-1","parameterCategory":1,"la1":30.2991,"la2":30.254,"lo1":-89.0895,"lo2":-89.0444,"dy":0.0017,"dx":0.0017,"nx":28,"ny":28,"refTime":"2023-08-16T21:00:00:Z","depth":0,"parameterNumber":2,"parameterNumberName":"U-component_of_WINDS"},"data":[0,0,0,0,0,0,0,0,0,0,0,0,0,0,0,0,0,0,0,0,0,0,0,0,0,0,0,0,0,0,0,0,0,0,0,0,0,0,0,0,0,0,0,0,0,0,0,0,0,0,0,0,0,0,0,0,0,0,0.8222,0.8223,0,0.8343,0.8344,0.8346,0.8418,0.8418,0.8419,0.8419,0.8545,0.8548,0.8551,0,0,0,0,0,0,0,0,0,0,0,0,0,0.8053,0.8056,0.8222,0.8223,0.8225,0.8343,0.8345,0.8346,0.8418,0.8418,0.8419,0.8419,0.8544,0.8548,0.8551,0,0,0,0,0,0,0,0,0,0,0,0,0,0.8145,0.8057,0.8221,0.8275,0.8281,0.8343,0.8345,0.8347,0.8418,0.8418,0.8419,0.8419,0.8543,0.8547,0.8552,0.8571,0,0,0.8566,0.8568,0,0,0,0,0,0,0,0,0.814,0.8152,0.8265,0.8271,0.8278,0.8366,0.8332,0.8422,0.8418,0.8366,0.8419,0.8419,0.8485,0.8495,0.8516,0.8577,0.8582,0.8566,0.8569,0.8571,0.8573,0,0,0,0,0,0,0,0.8134,0.8147,0.827,0.8267,0.8275,0.8293,0.8306,0.8349,0.8421,0.837,0.8376,0.8389,0.8489,0.8512,0.852,0.8584,0.8566,0.857,0.8573,0.8575,0.8665,0.8665,0,0,0,0,0,0,0.8119,0.8141,0.8266,0.8273,0.8209,0.8295,0.8311,0.8337,0.8421,0.8434,0.8389,0.8392,0.8504,0.8514,0.8525,0.8552,0.8571,0.8576,0.8578,0.8666,0.8665,0.8665,0,0,0,0,0,0,0.8115,0.8129,0.8261,0.8209,0.8227,0.8298,0.8327,0.8339,0.8362,0.8435,0.8448,0.8399,0.8505,0.8518,0.8559,0.8557,0.8578,0.8582,0.8666,0.8666,0.8665,0.8607,0,0,0,0,0,0,0.8109,0.8127,0.8135,0.8208,0.8229,0.8292,0.8327,0.8341,0.837,0.8376,0.8448,0.846,0.8506,0.8551,0.8563,0.8564,0.8585,0.8667,0.8666,0.8665,0.8609,0.8604,0.86,0,0,0,0,0,0.8103,0.8114,0.8135,0.815,0.824,0.8292,0.8304,0.8356,0.8369,0.8378,0.8424,0.8458,0.8555,0.8555,0.8569,0.8571,0.8667,0.8666,0.8665,0.8611,0.8605,0.86,0,0,0,0,0,0,0.804,0.8125,0.8149,0.8184,0.823,0.8304,0.8317,0.8348,0.8392,0.8396,0.8458,0.8474,0.8508,0.8544,0.8542,0.8593,0.8615,0.8617,0.8569,0.8564,0.8559,0.855,0.8589,0,0,0,0,0,0.803,0.8064,0.8137,0.8161,0.8183,0.8245,0.827,0.8305,0.8356,0.8376,0.8426,0.8474,0.8516,0.8542,0.8584,0.8614,0.8631,0.8623,0.8618,0.8614,0.8615,0.8633,0.863,0.8662,0.8662,0.8662,0,0,0.801,0.806,0.8078,0.8149,0.8189,0.8224,0.8261,0.8297,0.8323,0.8382,0.8423,0.846,0.8519,0.8554,0.8572,0.8585,0.861,0.8613,0.8609,0.8613,0.8632,0.8629,0.8626,0.8662,0.8662,0.8662,0,0,0.7991,0.8032,0.8056,0.8095,0.8155,0.8197,0.8202,0.8271,0.8298,0.834,0.8385,0.8417,0.8487,0.8527,0.8556,0.855,0.8582,0.8562,0.8539,0.8555,0.8553,0.8551,0.8548,0.8547,0.8563,0.8563,0.8562,0,0.7958,0.8011,0.8065,0.8097,0.8127,0.8181,0.8206,0.8241,0.8312,0.8331,0.8344,0.8432,0.8476,0.852,0.8518,0.854,0.8549,0.8554,0.8549,0.8547,0.8546,0.8544,0.8543,0.856,0.856,0.856,0.8561,0,0.7968,0.8005,0.8017,0.8083,0.8114,0.8142,0.82,0.8225,0.8257,0.8297,0.8339,0.8392,0.8445,0.8459,0.8491,0.8508,0.8513,0.8537,0.856,0.8539,0.8539,0.8538,0.8555,0.8557,0.8557,0.8558,0,0,0.7914,0.8008,0.8011,0.8041,0.8111,0.814,0.817,0.8222,0.8242,0.8288,0.8315,0.8373,0.8394,0.8427,0.8464,0.8479,0.847,0.8501,0.8503,0.8493,0.8491,0.8472,0.8471,0.8492,0.8492,0.8492,0.8485,0,0.7905,0.7962,0.801,0.8049,0.8083,0.8134,0.8161,0.8206,0.8244,0.8278,0.832,0.8359,0.8385,0.8405,0.8422,0.8467,0.847,0.8468,0.8517,0.8518,0.8501,0.8471,0.8452,0.8444,0.8486,0.8486,0.8486,0,0.7902,0.7945,0.7987,0.8052,0.8068,0.8091,0.8141,0.8174,0.8226,0.8252,0.8288,0.8326,0.8361,0.838,0.8428,0.8425,0.8448,0.8473,0.8474,0.8481,0.8501,0.8476,0.8442,0.8441,0.8486,0.8486,0.8486,0,0.7857,0.7926,0.796,0.7984,0.8061,0.8076,0.8108,0.8161,0.8188,0.8232,0.8251,0.8298,0.8325,0.8361,0.8411,0.842,0.8453,0.8477,0.8476,0.8475,0.8481,0.848,0.845,0.8496,0.8496,0.8496,0.8496,0,0.7842,0.7866,0.7941,0.7962,0.7989,0.8045,0.8071,0.8108,0.8154,0.8183,0.823,0.8257,0.8321,0.8355,0.8395,0.8428,0.844,0.8462,0.8472,0.8458,0.8455,0.8474,0.8476,0.8496,0.8496,0.8496,0.8496,0,0.7797,0.7849,0.7889,0.7957,0.7975,0.7992,0.8051,0.8073,0.8113,0.8149,0.8161,0.8224,0.8266,0.8319,0.8379,0.8405,0.8434,0.845,0.8416,0.8422,0.8418,0.8418,0.8399,0.84,0.8445,0.8444,0.8444,0,0.7784,0.7803,0.7874,0.7896,0.7927,0.7962,0.799,0.8045,0.8072,0.8132,0.8147,0.8192,0.8232,0.8297,0.8348,0.8393,0.841,0.8401,0.8418,0.8402,0.841,0.8408,0.841,0.8396,0.8396,0.8395,0.8395,0,0.7755,0.7779,0.7817,0.7864,0.7895,0.7935,0.7977,0.7992,0.8056,0.8084,0.8127,0.8157,0.8217,0.8262,0.8313,0.8347,0.8381,0.8389,0.8391,0.8376,0.8356,0.8366,0.8404,0.8389,0.839,0.839,0.839,0.8391,0.7726,0.7745,0.7797,0.7838,0.7874,0.7912,0.7935,0.7978,0.8014,0.8067,0.8097,0.8139,0.819,0.8263,0.8295,0.8329,0.8341,0.8345,0.8346,0.8346,0.8341,0.835,0.8338,0.8339,0.8339,0.8339,0.8339,0,0.7699,0.7735,0.7772,0.7828,0.7859,0.7888,0.7935,0.7959,0.7995,0.804,0.8077,0.8126,0.8169,0.8222,0.8269,0.8285,0.8302,0.8296,0.8295,0.8302,0.8327,0.832,0.8281,0.8281,0.8281,0.8281,0.8281,0.8281,0.7689,0.7723,0.7752,0.7804,0.784,0.7881,0.7905,0.794,0.7975,0.8028,0.8063,0.8098,0.8146,0.8196,0.8236,0.8251,0.8266,0.8254,0.8273,0.8296,0.8301,0.8306,0.8299,0.8257,0.8257,0.8246,0.8246,0.8246]},{"header":{"parameterUnit":"m.s-1","parameterCategory":1,"la1":30.2991,"la2":30.254,"lo1":-89.0895,"lo2":-89.0444,"dy":0.0017,"dx":0.0017,"nx":28,"ny":28,"refTime":"2023-08-16T21:00:00:Z","depth":0,"parameterNumber":3,"parameterNumberName":"V-component_of_WINDS"},"data":[0,0,0,0,0,0,0,0,0,0,0,0,0,0,0,0,0,0,0,0,0,0,0,0,0,0,0,0,0,0,0,0,0,0,0,0,0,0,0,0,0,0,0,0,0,0,0,0,0,0,0,0,0,0,0,0,0,0,1.7146,1.7146,0,1.7072,1.7072,1.7071,1.7065,1.7066,1.7067,1.7068,1.6987,1.6984,1.6981,0,0,0,0,0,0,0,0,0,0,0,0,0,1.7277,1.7275,1.7147,1.7146,1.7145,1.7073,1.7072,1.7071,1.7065,1.7066,1.7067,1.7068,1.6988,1.6985,1.6981,0,0,0,0,0,0,0,0,0,0,0,0,0,1.7213,1.7274,1.7147,1.7133,1.7131,1.7073,1.7072,1.707,1.7065,1.7066,1.7067,1.7068,1.6989,1.6985,1.6981,1.6929,0,0,1.6967,1.6965,0,0,0,0,0,0,0,0,1.7217,1.7209,1.7136,1.7134,1.7132,1.7079,1.7088,1.7023,1.7064,1.709,1.7068,1.7069,1.7016,1.701,1.6993,1.6925,1.6922,1.6967,1.6964,1.6962,1.6961,0,0,0,0,0,0,0,1.7221,1.7212,1.7117,1.7135,1.7132,1.7129,1.7121,1.7076,1.7047,1.7088,1.7087,1.7079,1.7015,1.6997,1.6991,1.692,1.6967,1.6963,1.696,1.6959,1.6802,1.6801,0,0,0,0,0,0,1.7229,1.7215,1.7119,1.7115,1.7179,1.7126,1.7117,1.7095,1.7048,1.7042,1.7078,1.7079,1.7004,1.6996,1.6988,1.6922,1.6962,1.6958,1.6956,1.6804,1.6802,1.6801,0,0,0,0,0,0,1.7232,1.7221,1.7122,1.7165,1.7152,1.7122,1.7097,1.7093,1.7075,1.704,1.7034,1.7065,1.7005,1.6994,1.6943,1.6919,1.6956,1.6952,1.6806,1.6803,1.6801,1.6791,0,0,0,0,0,0,1.7236,1.7222,1.7203,1.7165,1.715,1.708,1.7096,1.709,1.7068,1.7068,1.7026,1.7021,1.7005,1.695,1.6939,1.6914,1.6949,1.6808,1.6805,1.6802,1.6793,1.6788,1.6784,0,0,0,0,0,1.7241,1.7203,1.7202,1.7191,1.7127,1.7079,1.707,1.7055,1.7066,1.7046,1.7023,1.7022,1.6924,1.6945,1.6932,1.6906,1.6809,1.6806,1.6802,1.6795,1.6789,1.6784,0,0,0,0,0,0,1.7238,1.7198,1.7197,1.7146,1.7116,1.7078,1.7053,1.705,1.7015,1.7016,1.6997,1.6987,1.6936,1.6916,1.694,1.6851,1.6868,1.6861,1.6866,1.686,1.6856,1.6861,1.6945,0,0,0,0,0,1.7232,1.7199,1.7164,1.7123,1.7108,1.7083,1.7062,1.7052,1.702,1.7007,1.698,1.6947,1.6909,1.6884,1.6847,1.6791,1.6779,1.6766,1.6762,1.6758,1.6752,1.6718,1.671,1.6789,1.6789,1.6789,0,0,1.7219,1.7192,1.7172,1.7122,1.7097,1.7061,1.7072,1.7034,1.7005,1.7,1.695,1.6929,1.6891,1.6836,1.6811,1.6818,1.6728,1.6754,1.6751,1.6747,1.6713,1.6706,1.6699,1.6787,1.6787,1.6788,0,0,1.7175,1.7153,1.7114,1.709,1.7053,1.7037,1.7027,1.6989,1.6976,1.6925,1.692,1.6885,1.682,1.6792,1.677,1.6714,1.671,1.6702,1.6678,1.6645,1.6638,1.6633,1.6609,1.6602,1.6697,1.6697,1.6697,0,1.7162,1.7108,1.7095,1.7055,1.7032,1.7027,1.6986,1.6962,1.6915,1.6898,1.6907,1.6824,1.6798,1.6735,1.6721,1.6704,1.669,1.6706,1.6641,1.6635,1.6629,1.6607,1.6599,1.6696,1.6696,1.6696,1.6696,0,1.7093,1.7055,1.7029,1.6983,1.6957,1.6917,1.6895,1.687,1.6863,1.6844,1.6791,1.676,1.6715,1.67,1.6692,1.6635,1.664,1.6645,1.6661,1.6621,1.6599,1.6591,1.6695,1.6695,1.6695,1.6695,0,0,1.7045,1.6992,1.6982,1.696,1.6919,1.6889,1.6848,1.6805,1.6782,1.675,1.6712,1.6657,1.6661,1.6635,1.6624,1.6595,1.6548,1.6604,1.6602,1.6592,1.6479,1.6473,1.6464,1.6547,1.6545,1.6544,1.6481,0,1.6994,1.6922,1.6908,1.6844,1.6808,1.6802,1.6765,1.6735,1.6716,1.6681,1.666,1.6619,1.663,1.6614,1.6585,1.656,1.6525,1.6565,1.6509,1.6507,1.6516,1.6453,1.6447,1.639,1.6473,1.6472,1.6471,0,1.6925,1.6891,1.6824,1.6785,1.6769,1.6737,1.6695,1.6663,1.6627,1.6615,1.6586,1.6577,1.6531,1.6551,1.6486,1.6513,1.6489,1.6474,1.6471,1.6463,1.6485,1.644,1.6371,1.6361,1.6458,1.6459,1.646,0,1.6893,1.683,1.6781,1.6763,1.6718,1.6694,1.6674,1.664,1.6614,1.6577,1.656,1.6518,1.6494,1.6461,1.644,1.6457,1.6375,1.6394,1.6361,1.6361,1.6342,1.6343,1.6265,1.6332,1.6332,1.6332,1.6332,0,1.6836,1.6794,1.6766,1.6735,1.6688,1.6671,1.6623,1.6603,1.6572,1.6535,1.6528,1.6494,1.647,1.6431,1.6415,1.6361,1.6352,1.6339,1.6334,1.6337,1.6339,1.632,1.6322,1.633,1.633,1.6331,1.6331,0,1.6791,1.6771,1.6716,1.6677,1.6666,1.6633,1.6598,1.6567,1.6549,1.6502,1.649,1.646,1.6414,1.6391,1.6334,1.6323,1.6261,1.6261,1.6274,1.6271,1.6239,1.6241,1.6144,1.6128,1.6208,1.6207,1.6207,0,1.6754,1.6722,1.668,1.6655,1.6634,1.6596,1.6569,1.6551,1.6523,1.6479,1.6452,1.6406,1.6368,1.6295,1.6266,1.6222,1.6218,1.6187,1.6211,1.6215,1.6213,1.6214,1.6209,1.6182,1.6181,1.6181,1.618,0,1.669,1.6682,1.6645,1.6604,1.6573,1.6539,1.6506,1.6486,1.6462,1.6431,1.6385,1.6355,1.6297,1.625,1.6203,1.6179,1.6174,1.6173,1.6162,1.6164,1.6171,1.6163,1.6258,1.6175,1.6175,1.6176,1.6176,1.6176,1.6646,1.6616,1.6581,1.6539,1.6513,1.6482,1.645,1.6427,1.6388,1.634,1.6331,1.6281,1.6243,1.6179,1.6155,1.6113,1.6119,1.6105,1.6101,1.6097,1.6093,1.6181,1.6105,1.6105,1.6105,1.6105,1.6105,0,1.6579,1.6556,1.6518,1.6472,1.6439,1.6439,1.6402,1.6373,1.6329,1.6296,1.6258,1.6203,1.6157,1.6125,1.6078,1.6051,1.6047,1.6038,1.6038,1.6032,1.6092,1.6104,1.6042,1.6042,1.6042,1.6042,1.6042,1.6042,1.654,1.6488,1.6475,1.6409,1.6386,1.6337,1.6315,1.6285,1.6258,1.6197,1.6159,1.6139,1.6105,1.6055,1.6012,1.6003,1.5984,1.5976,1.5966,1.6022,1.6029,1.6035,1.6046,1.5973,1.5972,1.591,1.5909,1.5909]}]]